Home > Weather > Zhengzhou > Past weeks

Flag for China Past Weather in Zhengzhou, Henan, China — Yesterday and Last 2 Weeks

Now
79 °F

Overcast.


Feels Like: 82 °F
Forecast: 75 / 99 °F
Wind: 3 mph from South

Location: Zhengzhou Airport

Current Time: Jul 1, 2016 at 12:04:18 AM

Latest Report: Jun 30, 2016 at 11:00 PM


Visibility: 5 mi

Pressure: 29.59 "Hg

Humidity: 79%

Dew Point: 72 °F

Location of ZhengzhouLocation

Past Weather in Zhengzhou — Graph

°F

Zhengzhou Temperature Yesterday

Maximum temperature yesterday: 88 °F (at 12:00 PM)
Minimum temperature yesterday: 77 °F (at 5:00 AM)
Average temperature yesterday: 83 °F

High & Low Weather Summary for the Past Weeks

 TemperatureHumidityPressure
High99 °F (Jun 22, 3:00 PM)94% (Jun 23, 8:00 AM)29.86 "Hg (Jun 23, 8:00 AM)
Low66 °F (Jun 23, 7:00 PM)20% (Jun 16, 3:00 PM)29.47 "Hg (Jun 17, 4:00 PM)
Average82 °F60%29.66 "Hg
* Reported Jun 15 11:00 PM — Jun 30 11:00 PM, Zhengzhou, Weather by CustomWeather, © 2016

Note: Actual official high and low records may vary slightly from our data, if they occured in-between our weather recording intervals... More about our weather records

Advertising

Zhengzhou Weather History for the Previous 24 Hours

Scroll right to see more
 ConditionsComfort  
Time TempWeatherWind HumidityBarometerVisibility
11:00 PM
Thu, Jun 30
79 °FOvercast.3 mph79%29.59 "Hg5 mi
10:00 PM81 °FLight rain. Overcast.3 mph84%29.62 "Hg4 mi
9:00 PM82 °FLight rain. Overcast.1 mph79%29.59 "Hg4 mi
8:00 PM82 °FClear.3 mph79%29.56 "Hg5 mi
7:00 PM84 °FOvercast.6 mph74%29.59 "Hg5 mi
6:00 PM86 °FOvercast.8 mph70%29.59 "Hg5 mi
5:00 PM86 °FOvercast.6 mph70%29.59 "Hg5 mi
4:00 PM88 °FOvercast.8 mph62%29.62 "Hg5 mi
3:00 PM88 °FOvercast.6 mph66%29.62 "Hg5 mi
2:00 PM88 °FClear.6 mph66%29.62 "Hg5 mi
1:00 PM88 °FClear.8 mph62%29.65 "Hg5 mi
12:00 PM88 °FPassing clouds.8 mph62%29.65 "HgN/A
11:00 AM86 °FPassing clouds.6 mph66%29.65 "HgN/A
10:00 AM84 °FPassing clouds.6 mph70%29.65 "HgN/A
9:00 AM84 °FClear.6 mph70%29.65 "Hg5 mi
8:00 AM81 °FClear.6 mph79%29.65 "Hg5 mi
7:00 AM79 °FClear.3 mph84%29.65 "Hg4 mi
6:00 AM77 °FClear.6 mph89%29.65 "Hg4 mi
5:00 AM77 °FPassing clouds.3 mph89%29.65 "HgN/A
4:00 AM79 °FPassing clouds.6 mph84%29.65 "HgN/A
3:00 AM79 °FPassing clouds.8 mph84%29.65 "HgN/A
2:00 AM81 °FPassing clouds.8 mph79%29.68 "HgN/A
1:00 AM81 °FPassing clouds.8 mph79%29.65 "HgN/A
12:00 AM82 °FPassing clouds.8 mph70%29.65 "HgN/A
Weather by CustomWeather, © 2016

See weather overviewHow to use our weather pages